{"data":{"norad_id":64594,"epoch":"2026-05-24T18:31:55.776576Z","epoch_age_seconds":95489,"freshness":"FRESH","line1":"1 64594U 25137A   26144.77217334  .00021344  00000+0  73077-3 0  9997","line2":"2 64594  53.1590 341.8322 0000973  96.1188 263.9923 15.30196611 52383","mean_motion":15.30196611,"eccentricity":9.73e-5,"inclination_deg":53.159,"raan_deg":341.8322,"arg_perigee_deg":96.1188,"mean_anomaly_deg":263.9923,"bstar":0.00073077,"rev_number":5238,"period_min":94.105554126077,"perigee_km":474.5583562402,"apogee_km":475.89202052206,"semimajor_km":6853.3621883811,"source":"CELESTRAK","updated_at":"2026-05-25T13:38:20.463287Z"}}